IDE10 KIAD-KCLT

Flight info

Callsign IDE10
Flight time 0h 57m
Altitude 38000
Route SCRAM6 GLANC AIROW CHSLY6
Aircraft A319/M-SDE3FGHIRWY/LB1

Departure

Time 2026-05-06 22:57
Airport Washington Dulles International Airport (KIAD)

Arrival

Time 2026-05-06 23:55
Airport Charlotte Douglas International Airport (KCLT)
Time Latitude Longitude Altitude Speed Heading
2026-05-06 22:35 38.94592 -77.45490 299 ft 0 kts 180°
2026-05-06 22:44 38.94611 -77.45490 300 ft 4 kts 184°
2026-05-06 22:44 38.94638 -77.45486 300 ft 4 kts 192°
2026-05-06 22:44 38.94664 -77.45477 300 ft 4 kts 200°
2026-05-06 22:44 38.94689 -77.45463 302 ft 4 kts 208°
2026-05-06 22:45 38.94712 -77.45446 302 ft 3 kts 209°
2026-05-06 22:45 38.94716 -77.45443 299 ft 0 kts 208°
2026-05-06 22:46 38.94706 -77.45451 301 ft 5 kts 209°
2026-05-06 22:47 38.94671 -77.45488 300 ft 6 kts 242°
2026-05-06 22:47 38.94669 -77.45525 300 ft 0 kts 271°
2026-05-06 22:48 38.94669 -77.45561 298 ft 8 kts 266°
2026-05-06 22:48 38.94634 -77.45603 299 ft 8 kts 176°
2026-05-06 22:48 38.94573 -77.45607 300 ft 9 kts 183°
2026-05-06 22:48 38.94503 -77.45608 302 ft 10 kts 180°
2026-05-06 22:49 38.94429 -77.45609 304 ft 11 kts 181°
2026-05-06 22:49 38.94341 -77.45610 304 ft 16 kts 181°
2026-05-06 22:49 38.94209 -77.45612 304 ft 21 kts 181°
2026-05-06 22:49 38.94066 -77.45614 307 ft 17 kts 181°
2026-05-06 22:50 38.93933 -77.45616 304 ft 22 kts 180°
2026-05-06 22:50 38.93761 -77.45618 298 ft 27 kts 180°
2026-05-06 22:50 38.93635 -77.45658 293 ft 16 kts 196°
2026-05-06 22:50 38.93574 -77.45612 286 ft 11 kts 115°
2026-05-06 22:51 38.93524 -77.45535 285 ft 13 kts 168°
2026-05-06 22:51 38.93467 -77.45553 282 ft 1 kts 201°
2026-05-06 22:56 38.93439 -77.45567 281 ft 8 kts 201°
2026-05-06 22:56 38.93378 -77.45602 284 ft 10 kts 221°
2026-05-06 22:56 38.93390 -77.45689 283 ft 11 kts 291°
2026-05-06 22:56 38.93475 -77.45979 283 ft 64 kts 290°
2026-05-06 22:57 38.93702 -77.46748 296 ft 119 kts 291°
2026-05-06 22:57 38.94048 -77.47948 338 ft 166 kts 291°
2026-05-06 22:57 38.94453 -77.49348 973 ft 165 kts 282°
2026-05-06 22:57 38.94628 -77.50768 1781 ft 159 kts 268°
2026-05-06 22:58 38.94616 -77.52214 2396 ft 168 kts 269°
2026-05-06 22:58 38.94656 -77.53779 2878 ft 184 kts 270°
2026-05-06 22:58 38.94713 -77.55615 2970 ft 229 kts 270°
2026-05-06 22:58 38.94761 -77.57743 3075 ft 244 kts 270°
2026-05-06 22:59 38.94766 -77.59943 2988 ft 250 kts 267°
2026-05-06 22:59 38.94207 -77.62091 3717 ft 260 kts 238°
2026-05-06 22:59 38.92906 -77.63690 4793 ft 263 kts 212°
2026-05-06 22:59 38.91137 -77.64299 5982 ft 270 kts 186°
2026-05-06 23:00 38.89243 -77.63967 7020 ft 277 kts 178°
2026-05-06 23:00 38.87336 -77.63799 7993 ft 275 kts 188°
2026-05-06 23:00 38.85431 -77.64014 9002 ft 275 kts 194°
2026-05-06 23:00 38.83515 -77.64351 9722 ft 280 kts 195°
2026-05-06 23:01 38.81586 -77.64675 9995 ft 282 kts 194°
2026-05-06 23:01 38.79575 -77.64966 10430 ft 302 kts 193°
2026-05-06 23:01 38.77436 -77.65218 11040 ft 314 kts 192°
2026-05-06 23:01 38.75227 -77.65422 11830 ft 320 kts 191°
2026-05-06 23:02 38.73011 -77.65596 12630 ft 325 kts 191°
2026-05-06 23:02 38.70737 -77.65759 13439 ft 330 kts 191°
2026-05-06 23:02 38.68427 -77.65916 14141 ft 335 kts 191°
2026-05-06 23:02 38.66082 -77.66075 14841 ft 340 kts 192°
2026-05-06 23:03 38.63701 -77.66238 15546 ft 344 kts 192°
2026-05-06 23:03 38.61299 -77.66407 16259 ft 347 kts 193°
2026-05-06 23:03 38.58873 -77.66583 16956 ft 351 kts 193°
2026-05-06 23:03 38.56418 -77.66762 17661 ft 356 kts 193°
2026-05-06 23:04 38.53932 -77.66944 18331 ft 360 kts 194°
2026-05-06 23:04 38.51420 -77.67126 18946 ft 363 kts 194°
2026-05-06 23:04 38.48915 -77.67432 19561 ft 357 kts 201°
2026-05-06 23:04 38.46577 -77.68327 20175 ft 346 kts 213°
2026-05-06 23:05 38.44484 -77.69776 20691 ft 338 kts 223°
2026-05-06 23:05 38.42713 -77.71659 20841 ft 327 kts 233°
2026-05-06 23:05 38.41224 -77.73821 20875 ft 324 kts 237°
2026-05-06 23:05 38.39747 -77.76002 21000 ft 327 kts 236°
2026-05-06 23:06 38.38273 -77.78171 21610 ft 328 kts 236°
2026-05-06 23:06 38.36752 -77.80405 22248 ft 330 kts 237°
2026-05-06 23:06 38.35285 -77.82611 22859 ft 331 kts 237°
2026-05-06 23:06 38.33810 -77.84875 23490 ft 333 kts 238°
2026-05-06 23:07 38.32335 -77.87161 24022 ft 334 kts 238°
2026-05-06 23:07 38.30858 -77.89453 24543 ft 336 kts 238°
2026-05-06 23:07 38.29369 -77.91755 25060 ft 338 kts 238°
2026-05-06 23:07 38.27862 -77.94075 25566 ft 340 kts 238°
2026-05-06 23:08 38.26352 -77.96391 26049 ft 341 kts 237°
2026-05-06 23:08 38.24830 -77.98723 26535 ft 343 kts 237°
2026-05-06 23:08 38.23298 -78.01065 27017 ft 345 kts 237°
2026-05-06 23:08 38.21755 -78.03415 27488 ft 348 kts 237°
2026-05-06 23:09 38.20202 -78.05784 27955 ft 350 kts 237°
2026-05-06 23:09 38.18641 -78.08172 28430 ft 352 kts 237°
2026-05-06 23:09 38.17072 -78.10563 28888 ft 354 kts 237°
2026-05-06 23:09 38.15491 -78.12969 29355 ft 356 kts 237°
2026-05-06 23:10 38.13897 -78.15395 29814 ft 358 kts 237°
2026-05-06 23:10 38.12299 -78.17829 30214 ft 360 kts 237°
2026-05-06 23:10 38.10685 -78.20282 30602 ft 362 kts 237°
2026-05-06 23:10 38.09087 -78.22710 30981 ft 363 kts 237°
2026-05-06 23:11 38.07463 -78.25184 31355 ft 365 kts 237°
2026-05-06 23:11 38.05844 -78.27671 31680 ft 367 kts 238°
2026-05-06 23:11 38.04228 -78.30188 31994 ft 370 kts 238°
2026-05-06 23:11 38.02607 -78.32735 32341 ft 371 kts 239°
2026-05-06 23:12 38.00989 -78.35273 32828 ft 369 kts 239°
2026-05-06 23:12 37.99374 -78.37797 33368 ft 367 kts 239°
2026-05-06 23:12 37.97769 -78.40298 33907 ft 364 kts 240°
2026-05-06 23:12 37.96172 -78.42779 34381 ft 362 kts 240°
2026-05-06 23:13 37.94583 -78.45243 34828 ft 360 kts 240°
2026-05-06 23:13 37.93002 -78.47691 35257 ft 358 kts 240°
2026-05-06 23:13 37.91426 -78.50133 35672 ft 357 kts 241°
2026-05-06 23:13 37.89864 -78.52557 36082 ft 355 kts 241°
2026-05-06 23:14 37.88303 -78.54977 36479 ft 354 kts 242°
2026-05-06 23:14 37.86747 -78.57388 36879 ft 352 kts 242°
2026-05-06 23:14 37.85202 -78.59778 37265 ft 351 kts 242°
2026-05-06 23:14 37.83654 -78.62162 37635 ft 350 kts 242°
2026-05-06 23:15 37.82111 -78.64542 37859 ft 349 kts 242°
2026-05-06 23:15 37.79059 -78.69247 37889 ft 344 kts 242°
2026-05-06 23:16 37.76035 -78.73915 37890 ft 342 kts 242°
2026-05-06 23:16 37.73013 -78.78560 37892 ft 342 kts 241°
2026-05-06 23:16 37.71272 -78.80693 37893 ft 357 kts 231°
2026-05-06 23:17 37.69260 -78.82589 37891 ft 360 kts 230°
2026-05-06 23:17 37.65225 -78.86353 37854 ft 361 kts 230°
2026-05-06 23:18 37.61188 -78.90110 37873 ft 361 kts 231°
2026-05-06 23:18 37.57141 -78.93886 37884 ft 362 kts 231°
2026-05-06 23:19 37.53128 -78.97636 37902 ft 362 kts 231°
2026-05-06 23:19 37.49073 -79.01412 37922 ft 362 kts 230°
2026-05-06 23:20 37.45012 -79.05180 37926 ft 362 kts 230°
2026-05-06 23:20 37.40910 -79.08897 37937 ft 364 kts 229°
2026-05-06 23:21 37.36743 -79.12514 37951 ft 364 kts 229°
2026-05-06 23:21 37.32574 -79.16112 37955 ft 363 kts 229°
2026-05-06 23:22 37.28416 -79.19723 37955 ft 363 kts 229°
2026-05-06 23:22 37.24270 -79.23332 37926 ft 362 kts 229°
2026-05-06 23:23 37.20188 -79.26992 37877 ft 360 kts 230°
2026-05-06 23:23 37.16156 -79.30665 37887 ft 361 kts 230°
2026-05-06 23:24 37.12090 -79.34352 37898 ft 362 kts 230°
2026-05-06 23:24 37.07999 -79.38035 37903 ft 362 kts 230°
2026-05-06 23:25 37.03900 -79.41705 37905 ft 362 kts 230°
2026-05-06 23:25 36.99790 -79.45350 37901 ft 363 kts 229°
2026-05-06 23:26 36.95599 -79.48889 37915 ft 363 kts 228°
2026-05-06 23:26 36.91391 -79.52395 37917 ft 363 kts 228°
2026-05-06 23:27 36.87202 -79.55911 37928 ft 362 kts 229°
2026-05-06 23:27 36.83020 -79.59427 37921 ft 363 kts 229°
2026-05-06 23:28 36.79541 -79.62359 37906 ft 363 kts 228°
2026-05-06 23:28 36.75334 -79.65894 37900 ft 365 kts 228°
2026-05-06 23:29 36.70423 -79.69999 37918 ft 366 kts 228°
2026-05-06 23:29 36.68311 -79.71762 37731 ft 365 kts 228°
2026-05-06 23:29 36.66871 -79.72969 37086 ft 370 kts 228°
2026-05-06 23:29 36.64734 -79.74765 36280 ft 372 kts 227°
2026-05-06 23:30 36.62577 -79.76574 35288 ft 377 kts 226°
2026-05-06 23:30 36.60379 -79.78417 34357 ft 382 kts 225°
2026-05-06 23:30 36.58174 -79.80250 33580 ft 381 kts 224°
2026-05-06 23:30 36.55977 -79.82067 32825 ft 377 kts 224°
2026-05-06 23:31 36.53828 -79.83843 32008 ft 376 kts 223°
2026-05-06 23:31 36.51652 -79.85648 31189 ft 376 kts 222°
2026-05-06 23:31 36.49479 -79.87456 30392 ft 375 kts 221°
2026-05-06 23:31 36.47320 -79.89251 29795 ft 370 kts 220°
2026-05-06 23:32 36.45202 -79.91007 29341 ft 361 kts 221°
2026-05-06 23:32 36.43139 -79.92715 28909 ft 352 kts 221°
2026-05-06 23:32 36.41129 -79.94377 28503 ft 344 kts 221°
2026-05-06 23:32 36.39151 -79.96013 28103 ft 337 kts 221°
2026-05-06 23:33 36.37219 -79.97611 27706 ft 330 kts 221°
2026-05-06 23:33 36.35325 -79.99176 27302 ft 324 kts 222°
2026-05-06 23:33 36.33465 -80.00712 26906 ft 317 kts 222°
2026-05-06 23:33 36.31608 -80.02256 26388 ft 327 kts 222°
2026-05-06 23:34 36.29698 -80.03850 25885 ft 334 kts 222°
2026-05-06 23:34 36.27781 -80.05441 25360 ft 338 kts 221°
2026-05-06 23:34 36.25820 -80.07060 24996 ft 338 kts 221°
2026-05-06 23:34 36.23865 -80.08663 24709 ft 336 kts 221°
2026-05-06 23:35 36.21923 -80.10255 24389 ft 334 kts 221°
2026-05-06 23:35 36.19984 -80.11847 24071 ft 333 kts 221°
2026-05-06 23:35 36.18058 -80.13430 23758 ft 332 kts 221°
2026-05-06 23:35 36.16147 -80.14999 23292 ft 329 kts 222°
2026-05-06 23:36 36.14247 -80.16564 22758 ft 327 kts 222°
2026-05-06 23:36 36.12358 -80.18116 22280 ft 324 kts 222°
2026-05-06 23:36 36.10487 -80.19647 21804 ft 320 kts 222°
2026-05-06 23:36 36.08636 -80.21162 21255 ft 318 kts 222°
2026-05-06 23:37 36.06795 -80.22671 20724 ft 318 kts 222°
2026-05-06 23:37 36.04953 -80.24182 20243 ft 316 kts 222°
2026-05-06 23:37 36.03129 -80.25677 19762 ft 314 kts 222°
2026-05-06 23:37 36.01319 -80.27159 19296 ft 312 kts 222°
2026-05-06 23:38 35.99511 -80.28636 18844 ft 310 kts 222°
2026-05-06 23:38 35.97719 -80.30096 18395 ft 308 kts 222°
2026-05-06 23:38 35.95936 -80.31551 17902 ft 306 kts 222°
2026-05-06 23:38 35.94164 -80.32997 17410 ft 304 kts 221°
2026-05-06 23:39 35.92407 -80.34430 16923 ft 302 kts 221°
2026-05-06 23:39 35.90661 -80.35853 16431 ft 300 kts 221°
2026-05-06 23:39 35.88923 -80.37272 15959 ft 298 kts 221°
2026-05-06 23:39 35.87199 -80.38677 15509 ft 296 kts 220°
2026-05-06 23:40 35.85499 -80.40057 15132 ft 292 kts 220°
2026-05-06 23:40 35.83797 -80.41444 14630 ft 293 kts 220°
2026-05-06 23:40 35.82155 -80.42850 14202 ft 289 kts 222°
2026-05-06 23:40 35.80545 -80.44365 13786 ft 286 kts 224°
2026-05-06 23:41 35.78991 -80.45886 13328 ft 284 kts 224°
2026-05-06 23:41 35.77481 -80.47383 12879 ft 282 kts 224°
2026-05-06 23:41 35.75952 -80.48893 12473 ft 279 kts 224°
2026-05-06 23:41 35.74299 -80.50186 12106 ft 285 kts 211°
2026-05-06 23:42 35.72423 -80.51000 11640 ft 287 kts 204°
2026-05-06 23:42 35.70517 -80.51736 11129 ft 286 kts 204°
2026-05-06 23:42 35.68624 -80.52459 10689 ft 283 kts 204°
2026-05-06 23:42 35.66761 -80.53168 10280 ft 279 kts 204°
2026-05-06 23:43 35.64917 -80.53879 9884 ft 275 kts 206°
2026-05-06 23:43 35.63344 -80.55049 9443 ft 259 kts 231°
2026-05-06 23:43 35.62301 -80.56818 9002 ft 256 kts 241°
2026-05-06 23:43 35.61368 -80.58693 8549 ft 257 kts 242°
2026-05-06 23:44 35.60451 -80.60580 8106 ft 258 kts 242°
2026-05-06 23:44 35.59533 -80.62487 7660 ft 259 kts 242°
2026-05-06 23:44 35.58621 -80.64396 7235 ft 259 kts 242°
2026-05-06 23:44 35.57718 -80.66313 6821 ft 260 kts 242°
2026-05-06 23:45 35.56832 -80.68190 6753 ft 251 kts 242°
2026-05-06 23:45 35.55966 -80.70039 6698 ft 249 kts 242°
2026-05-06 23:45 35.55108 -80.71881 6651 ft 248 kts 242°
2026-05-06 23:45 35.54269 -80.73674 6599 ft 235 kts 242°
2026-05-06 23:46 35.53474 -80.75366 6537 ft 223 kts 242°
2026-05-06 23:46 35.52713 -80.76988 6420 ft 215 kts 242°
2026-05-06 23:46 35.51987 -80.78547 6292 ft 206 kts 242°
2026-05-06 23:46 35.51290 -80.80037 6174 ft 196 kts 242°
2026-05-06 23:47 35.50626 -80.81456 6045 ft 188 kts 242°
2026-05-06 23:47 35.49992 -80.82814 5921 ft 185 kts 242°
2026-05-06 23:47 35.49353 -80.84181 5804 ft 185 kts 242°
2026-05-06 23:47 35.48707 -80.85554 5672 ft 185 kts 242°
2026-05-06 23:48 35.48062 -80.86926 5551 ft 185 kts 241°
2026-05-06 23:48 35.47433 -80.88295 5428 ft 183 kts 242°
2026-05-06 23:48 35.46813 -80.89653 5275 ft 183 kts 242°
2026-05-06 23:48 35.46191 -80.91008 5075 ft 182 kts 242°
2026-05-06 23:49 35.45573 -80.92369 4853 ft 183 kts 241°
2026-05-06 23:49 35.44681 -80.93462 4633 ft 186 kts 210°
2026-05-06 23:49 35.43460 -80.94016 4606 ft 188 kts 202°
2026-05-06 23:49 35.42224 -80.94479 4602 ft 179 kts 202°
2026-05-06 23:50 35.41054 -80.94909 4572 ft 172 kts 203°
2026-05-06 23:50 35.38663 -80.95045 4149 ft 182 kts 175°
2026-05-06 23:50 35.37427 -80.94867 3815 ft 179 kts 185°
2026-05-06 23:51 35.36182 -80.94782 3439 ft 179 kts 184°
2026-05-06 23:51 35.34955 -80.94684 3180 ft 175 kts 184°
2026-05-06 23:51 35.33769 -80.94583 2942 ft 167 kts 184°
2026-05-06 23:51 35.32628 -80.94485 2732 ft 160 kts 184°
2026-05-06 23:52 35.31546 -80.94392 2536 ft 149 kts 185°
2026-05-06 23:52 35.30584 -80.94305 2334 ft 129 kts 186°
2026-05-06 23:52 35.29711 -80.94232 2179 ft 123 kts 185°
2026-05-06 23:52 35.28872 -80.94162 2026 ft 120 kts 184°
2026-05-06 23:53 35.28044 -80.94093 1867 ft 121 kts 182°
2026-05-06 23:53 35.27204 -80.94022 1713 ft 120 kts 182°
2026-05-06 23:53 35.26370 -80.93950 1534 ft 121 kts 181°
2026-05-06 23:53 35.25533 -80.93881 1358 ft 122 kts 179°
2026-05-06 23:54 35.24681 -80.93806 1208 ft 124 kts 180°
2026-05-06 23:54 35.23822 -80.93728 1027 ft 123 kts 180°
2026-05-06 23:54 35.22977 -80.93659 863 ft 121 kts 180°
2026-05-06 23:54 35.22141 -80.93586 743 ft 116 kts 179°
2026-05-06 23:55 35.21463 -80.93532 724 ft 77 kts 173°
2026-05-06 23:55 35.21074 -80.93499 718 ft 35 kts 183°
2026-05-06 23:55 35.20940 -80.93561 717 ft 14 kts 252°
2026-05-06 23:55 35.21004 -80.93624 720 ft 15 kts 353°
2026-05-06 23:56 35.21112 -80.93632 719 ft 16 kts 356°
2026-05-06 23:56 35.21230 -80.93642 721 ft 18 kts 356°
2026-05-06 23:56 35.21356 -80.93654 724 ft 19 kts 356°
2026-05-06 23:56 35.21490 -80.93666 722 ft 20 kts 356°
2026-05-06 23:57 35.21595 -80.93706 724 ft 13 kts 302°
2026-05-06 23:57 35.21659 -80.93806 724 ft 17 kts 310°
2026-05-06 23:57 35.21752 -80.93924 724 ft 22 kts 318°
2026-05-06 23:57 35.21826 -80.94006 725 ft 10 kts 309°
2026-05-06 23:58 35.21842 -80.94086 724 ft 10 kts 275°
2026-05-06 23:58 35.21829 -80.94150 724 ft 4 kts 250°
2026-05-06 23:58 35.21824 -80.94166 724 ft 0 kts 249°